{"data":{"norad_id":65015,"intl_designator":"2025-161A","name":"STARLINK-34617","alt_names":[],"object_type":"PAYLOAD","status":"ACTIVE","operator":null,"country":"US","launch_date":"2025-07-30","launch_site_code":"AFWTR","launch_vehicle":null,"mission":null,"orbit_class":"UNKNOWN","rcs_meters":null,"size_class":null,"mass_kg":null,"dimensions":null,"purposes":["comms"],"wikipedia_slug":null,"has_3d_model":false,"image_url":null,"decayed_at":null,"tle_current":{"epoch":"2026-09-20T22:05:55.413600Z","epoch_age_seconds":87867,"freshness":"FRESH","line1":"1 65015U 25161A   26263.92078025  .00133700  00000+0  86143-3 0  9992","line2":"2 65015  53.1576  73.2649 0000759  87.9412 272.1696 15.75270873 22933","mean_motion":15.75270873,"eccentricity":7.59e-5,"inclination_deg":53.1576,"raan_deg":73.2649,"arg_perigee_deg":87.9412,"mean_anomaly_deg":272.1696,"bstar":0.00086143,"rev_number":2293,"period_min":91.412849985451,"perigee_km":343.35029166684,"apogee_km":344.37069088602,"semimajor_km":6721.9974912764,"source":"CELESTRAK","updated_at":"2026-09-21T09:00:35.491266Z"}}}